Regional Weather Roundup
Issued by NWS Huntsville, AL

Home | Current Version | Previous Version | Text Only | Print | Product List | Glossary On
Versions: 1 2 3 4 5 6 7 8 9 10 11 12 13 14 15 16 17 18 19 20 21 22 23 24 25 26 27 28
000
ASUS44 KHUN 252310
RWRHUN

WEATHER ROUNDUP FOR THE TENNESSEE VALLEY
NATIONAL WEATHER SERVICE HUNTSVILLE AL
600 PM CDT WED MAY 25 2016

ALZ001>004-260000-
NORTHWEST ALABAMA

CITY           SKY/WX    TMP DP  RH WIND       PRES   REMARKS
SHOALS AIRPORT MOSUNNY   85  55  35 SW9       30.13R
SHOALS TVA RES   N/A     84 N/A N/A MISG        N/A
$$

ALZ005>007-016-260000-
NORTH CENTRAL ALABAMA

CITY           SKY/WX    TMP DP  RH WIND       PRES   REMARKS
DECATUR AP     CLOUDY    84  57  39 SW12      30.12R
HUNTSVILLE AP  PTSUNNY   86  56  35 SW8       30.12R
HUN NWS/UAH      N/A     85  54  34 S5          N/A
MERIDIANVILLE  MOSUNNY   84  46  26 SW10      30.12R
REDSTONE ARSN  CLOUDY    83  59  44 SW5       30.11R
VINEMONT AP    FAIR      83  57  40 SW7       30.16R
$$

ALZ008>010-260000-
NORTHEAST ALABAMA

CITY           SKY/WX    TMP DP  RH WIND       PRES   REMARKS
ALBERTVILLE    SUNNY     84  64  51 S8        30.13S
FORT PAYNE     CLOUDY    82  52  34 S3        30.13S
SCOTTSBORO AP  CLOUDY    86  55  35 SW8       30.12S
SCOTTSBORO HCN   N/A     84 N/A N/A MISG        N/A
VALLEY HEAD      N/A     81 N/A N/A MISG        N/A
$$

TNZ076-096-097-260000-
SOUTHEASTERN MIDDLE TENNESSEE

CITY           SKY/WX    TMP DP  RH WIND       PRES   REMARKS
TULLAHOMA      SUNNY     81  57  44 S6        30.14R
WINCHESTER     MOSUNNY   84  59  42 S7        30.13S
$$

...SURROUNDING SITES...

CITY           SKY/WX    TMP DP  RH WIND       PRES   REMARKS
ATLANTA        MOSUNNY   84  54  35 S12       30.16F
ANNISTON       SUNNY     86  55  34 VRB6      30.13F
BIRMINGHAM     PTSUNNY   85  59  41 S12       30.14S
CHATTANOOGA    PTSUNNY   86  55  34 S7        30.12S
DALTON         SUNNY     84  55  37 S6        30.14S
GADSDEN        SUNNY     87  59  38 VRB7      30.12F
GOLDEN TRNGL   MOSUNNY   86  64  48 S12       30.10R
HALEYVILLE     PTSUNNY   82  60  47 S12       30.16R
JACKSON TN     LGT RAIN  67  65  93 S17G26    30.01F
MEMPHIS        CLOUDY    74  68  81 E7        30.05R
NASHVILLE      CLOUDY    76  64  66 NE10      30.11R
OXFORD MS      FAIR      75  64  69 E12G24    30.10S
ROME           SUNNY     86  53  32 S5        30.12F
SAVANNAH       CLOUDY    70  66  88 NW8       30.20R FOG
TUPELO         CLOUDY    86  60  41 SE9       30.10R
TUSCALOOSA     MOSUNNY   84  58  40 S10       30.12R
$$

...GULF COAST WEATHER...

CITY           SKY/WX    TMP DP  RH WIND       PRES   REMARKS
GULFPORT       SUNNY     81  67  62 SE12      30.13R
PASCAGOULA     MOSUNNY   80  64  58 S7        30.13S
MOBILE         PTSUNNY   84  59  42 SE9       30.13F
GULF SHORES    PTCLDY    79  67  65 MISG      30.13F
DESTIN         SUNNY     82  73  74 SE8       30.13F
PANAMA CITY    PTSUNNY   80  71  74 S10       30.14F
APPALACHICOLA  CLOUDY    80  73  79 SE7       30.15F
$$





USA.gov is the U.S. government's official web portal to all federal, state and local government web resources and services.